Weather History for Tucson Davis Monthan, AZ

Change the Weather History Date:

Monday, October 14, 2013

  Actual Average Record
Temperature  
Mean Temperature 66 °F -  
Max Temperature 80 °F 85 °F 98 °F (1991)
Min Temperature 53 °F 57 °F 41 °F (2008)
Cooling Degree Days 2    
Growing Degree Days 16 (Base 50)    
Moisture  
Dew Point 37 °F    
Average Humidity 35    
Maximum Humidity 61    
Minimum Humidity 19    
Precipitation  
Precipitation 0.00 in - - ()
Sea Level Pressure  
Sea Level Pressure 29.92 in    
Wind  
Wind Speed 4 mph (SSE)    
Max Wind Speed 10 mph    
Max Gust Speed -    
Visibility 10 miles    
Events      
Averages and records for this station are not official NWS values.
T = Trace of Precipitation, MM = Missing Value Source: NWS Daily Summary

Daily Weather History Graph

Daily Weather History Graph

Search for Another Location

Airport:

Trip Planner

Search our weather history database for the weather conditions in past years. The results will help you decide how hot, cold, wet, or windy it might be!

Date:

Astronomy

Oct. 14, 2013 Rise Set
Actual Time 6:26 AM MST 5:51 PM MST
Civil Twilight 6:01 AM MST 6:16 PM MST
Nautical Twilight 5:33 AM MST 6:44 PM MST
Astronomical Twilight 5:05 AM MST 7:13 PM MST
Moon 3:10 PM MST (10/14) 2:02 AM MST (10/14)
Length of Visible Light 12h 14m
Length of Day
11h 25m
Waxing Gibbous, 80% of the Moon is Illuminated
Oct 14
Waxing Gibbous
Oct 18
Full
Oct 26
Last Quarter
Nov 3
New
Nov 9
First Quarter

Hourly Weather History & Observations

Time (MST) Temp. Dew Point Humidity Pressure Visibility Wind Dir Wind Speed Gust Speed Precip Events Conditions
12:58 AM 64.0 °F 38.8 °F 39% 29.92 in 10.0 mi East 4.6 mph - N/A   Clear
1:58 AM 64.0 °F 39.6 °F 41% 29.92 in 10.0 mi ESE 3.5 mph - N/A   Clear
2:58 AM 60.6 °F 40.6 °F 48% 29.91 in 10.0 mi SE 4.6 mph - N/A   Clear
3:58 AM 59.0 °F 41.9 °F 53% 29.91 in 10.0 mi Calm Calm - N/A   Clear
4:58 AM 57.4 °F 41.5 °F 56% 29.93 in 10.0 mi ESE 3.5 mph - N/A   Clear
5:58 AM 55.0 °F 40.3 °F 58% 29.96 in 10.0 mi South 3.5 mph - N/A   Clear
6:58 AM 53.4 °F 40.3 °F 61% 29.98 in 10.0 mi SE 5.8 mph - N/A   Clear
7:58 AM 64.0 °F 43.5 °F 47% 29.99 in 10.0 mi South 2.3 mph - N/A   Clear
8:58 AM 66.7 °F 40.3 °F 38% 29.99 in 10.0 mi Calm Calm - N/A   Clear
9:58 AM 69.8 °F 37.4 °F 31% 29.98 in 10.0 mi Variable 2.3 mph - N/A   Clear
10:58 AM 72.5 °F 34.9 °F 25% 29.96 in 10.0 mi Variable 2.3 mph - N/A   Clear
11:58 AM 74.3 °F 37.8 °F 27% 29.94 in 10.0 mi East 2.3 mph - N/A   Clear
12:58 PM 77.0 °F 38.5 °F 25% 29.91 in 10.0 mi Variable 3.5 mph - N/A   Clear
1:58 PM 78.8 °F 37.4 °F 23% 29.88 in 10.0 mi Variable 5.8 mph - N/A   Clear
2:58 PM 80.1 °F 38.1 °F 22% 29.87 in 10.0 mi NW 8.1 mph - N/A   Clear
3:58 PM 80.6 °F 36.0 °F 20% 29.86 in 10.0 mi NNW 10.4 mph - N/A   Clear
4:58 PM 79.2 °F 34.0 °F 19% 29.86 in 10.0 mi NNW 9.2 mph - N/A   Clear
5:58 PM 76.1 °F 35.1 °F 23% 29.87 in 10.0 mi NNW 10.4 mph - N/A   Clear
6:58 PM 73.4 °F 34.9 °F 24% 29.89 in 10.0 mi NW 5.8 mph - N/A   Clear
7:58 PM 70.5 °F 33.4 °F 26% 29.89 in 10.0 mi WNW 8.1 mph - N/A   Clear
8:58 PM 68.4 °F 33.3 °F 27% 29.90 in 10.0 mi West 4.6 mph - N/A   Clear
9:58 PM 64.4 °F 33.4 °F 32% 29.91 in 10.0 mi South 5.8 mph - N/A   Clear
10:58 PM 63.0 °F 33.1 °F 33% 29.90 in 10.0 mi SSE 2.3 mph - N/A   Clear
11:58 PM 60.4 °F 32.4 °F 35% 29.90 in 10.0 mi South 5.8 mph - N/A   Clear